4XCGO LLHZ-LLHA

Flight info

Callsign 4XCGO
Flight time 0h 28m
Altitude 1000
Route CVFR
Aircraft C172/L-V/N

Departure

Time 2026-04-25 17:16
Airport Herzliya Airport (LLHZ)

Arrival

Time 2026-04-25 17:44
Airport Uri Michaeli Haifa International Airport (LLHA)
Time Latitude Longitude Altitude Speed Heading
2026-04-25 17:03 32.18218 34.82802 91 ft 0 kts 110°
2026-04-25 17:08 32.18206 34.82816 92 ft 3 kts 160°
2026-04-25 17:09 32.18192 34.82836 92 ft 7 kts 109°
2026-04-25 17:09 32.18174 34.82887 92 ft 5 kts 111°
2026-04-25 17:09 32.18160 34.82945 92 ft 8 kts 112°
2026-04-25 17:09 32.18145 34.82992 93 ft 5 kts 110°
2026-04-25 17:10 32.18122 34.83038 94 ft 8 kts 121°
2026-04-25 17:10 32.18098 34.83104 95 ft 8 kts 110°
2026-04-25 17:10 32.18078 34.83172 96 ft 9 kts 109°
2026-04-25 17:10 32.18069 34.83223 97 ft 4 kts 74°
2026-04-25 17:11 32.18046 34.83279 98 ft 9 kts 110°
2026-04-25 17:11 32.18030 34.83335 100 ft 6 kts 105°
2026-04-25 17:11 32.18018 34.83373 101 ft 12 kts 102°
2026-04-25 17:11 32.17998 34.83447 102 ft 8 kts 108°
2026-04-25 17:12 32.17971 34.83534 105 ft 15 kts 109°
2026-04-25 17:12 32.17940 34.83640 109 ft 12 kts 109°
2026-04-25 17:12 32.17917 34.83718 113 ft 10 kts 109°
2026-04-25 17:12 32.17890 34.83808 117 ft 8 kts 109°
2026-04-25 17:13 32.17880 34.83843 118 ft 5 kts 106°
2026-04-25 17:13 32.17880 34.83853 119 ft 0 kts 66°
2026-04-25 17:13 32.17889 34.83863 118 ft 4 kts 24°
2026-04-25 17:13 32.17912 34.83856 120 ft 5 kts 306°
2026-04-25 17:14 32.17924 34.83821 120 ft 0 kts 289°
2026-04-25 17:14 32.17926 34.83815 119 ft 10 kts 287°
2026-04-25 17:14 32.18015 34.83537 108 ft 60 kts 288°
2026-04-25 17:14 32.18157 34.83011 219 ft 74 kts 290°
2026-04-25 17:15 32.18632 34.82694 292 ft 92 kts
2026-04-25 17:15 32.19226 34.82913 455 ft 93 kts 22°
2026-04-25 17:15 32.19220 34.83635 571 ft 105 kts 122°
2026-04-25 17:15 32.18827 34.84348 674 ft 103 kts 117°
2026-04-25 17:16 32.18540 34.85110 739 ft 99 kts 93°
2026-04-25 17:16 32.18795 34.85829 750 ft 105 kts 33°
2026-04-25 17:16 32.19480 34.86148 755 ft 106 kts 16°
2026-04-25 17:16 32.20159 34.86410 777 ft 100 kts 17°
2026-04-25 17:17 32.20752 34.86858 806 ft 107 kts 33°
2026-04-25 17:17 32.21361 34.87404 797 ft 113 kts 33°
2026-04-25 17:17 32.21980 34.87928 829 ft 110 kts 26°
2026-04-25 17:17 32.22695 34.88261 812 ft 108 kts 16°
2026-04-25 17:18 32.23415 34.88467 882 ft 106 kts
2026-04-25 17:18 32.24117 34.88626 996 ft 103 kts 11°
2026-04-25 17:18 32.24831 34.88862 950 ft 109 kts 16°
2026-04-25 17:18 32.25552 34.89144 846 ft 112 kts 13°
2026-04-25 17:19 32.26331 34.89349 740 ft 114 kts
2026-04-25 17:19 32.27093 34.89466 783 ft 107 kts
2026-04-25 17:19 32.27841 34.89548 749 ft 110 kts
2026-04-25 17:19 32.28576 34.89660 732 ft 104 kts
2026-04-25 17:20 32.29044 34.89739 722 ft 103 kts
2026-04-25 17:20 32.29987 34.89890 709 ft 100 kts
2026-04-25 17:20 32.30662 34.89997 793 ft 96 kts
2026-04-25 17:20 32.31311 34.90144 784 ft 96 kts
2026-04-25 17:21 32.31944 34.90364 879 ft 93 kts 10°
2026-04-25 17:21 32.32586 34.90528 1116 ft 96 kts
2026-04-25 17:21 32.33264 34.90609 1268 ft 101 kts
2026-04-25 17:21 32.33938 34.90662 1559 ft 94 kts
2026-04-25 17:22 32.34597 34.90698 1671 ft 105 kts
2026-04-25 17:22 32.34855 34.90718 1653 ft 108 kts
2026-04-25 17:22 32.36204 34.90811 1551 ft 115 kts 357°
2026-04-25 17:22 32.36994 34.90800 1529 ft 114 kts 358°
2026-04-25 17:23 32.37726 34.90762 1697 ft 102 kts 355°
2026-04-25 17:23 32.38521 34.90673 1576 ft 113 kts 353°
2026-04-25 17:23 32.39247 34.90513 1561 ft 110 kts 347°
2026-04-25 17:23 32.39995 34.90345 1602 ft 110 kts 355°
2026-04-25 17:24 32.40725 34.90390 1574 ft 97 kts
2026-04-25 17:24 32.41408 34.90542 1405 ft 103 kts 10°
2026-04-25 17:24 32.42097 34.90707 1378 ft 100 kts 10°
2026-04-25 17:24 32.42772 34.90878 1379 ft 98 kts
2026-04-25 17:25 32.43215 34.90915 1448 ft 92 kts 359°
2026-04-25 17:25 32.44038 34.90933 1538 ft 87 kts
2026-04-25 17:25 32.44674 34.90984 1530 ft 92 kts
2026-04-25 17:25 32.45333 34.91043 1517 ft 101 kts
2026-04-25 17:26 32.46049 34.91098 1491 ft 104 kts
2026-04-25 17:26 32.46764 34.91223 1602 ft 105 kts
2026-04-25 17:26 32.47496 34.91373 1623 ft 106 kts 14°
2026-04-25 17:26 32.48213 34.91632 1664 ft 105 kts 17°
2026-04-25 17:27 32.48784 34.91937 1558 ft 100 kts 26°
2026-04-25 17:27 32.49450 34.92250 1595 ft 106 kts
2026-04-25 17:27 32.50183 34.91973 1527 ft 119 kts 332°
2026-04-25 17:27 32.50427 34.91814 1537 ft 116 kts 334°
2026-04-25 17:28 32.51626 34.91398 1715 ft 109 kts 354°
2026-04-25 17:28 32.52401 34.91430 1729 ft 114 kts
2026-04-25 17:28 32.53228 34.91537 1718 ft 112 kts
2026-04-25 17:28 32.53974 34.91673 1580 ft 101 kts 16°
2026-04-25 17:29 32.54602 34.91836 1447 ft 99 kts
2026-04-25 17:29 32.55274 34.92002 1480 ft 105 kts 25°
2026-04-25 17:29 32.55838 34.92579 1466 ft 108 kts 35°
2026-04-25 17:29 32.56449 34.93047 1665 ft 99 kts 18°
2026-04-25 17:30 32.56908 34.93198 1706 ft 107 kts 11°
2026-04-25 17:30 32.57872 34.93637 1695 ft 118 kts 26°
2026-04-25 17:30 32.58590 34.94108 1532 ft 117 kts 28°
2026-04-25 17:30 32.59299 34.94552 1484 ft 112 kts 22°
2026-04-25 17:31 32.59966 34.94969 1533 ft 106 kts 28°
2026-04-25 17:31 32.60689 34.95228 1604 ft 110 kts
2026-04-25 17:31 32.61475 34.95342 1616 ft 116 kts
2026-04-25 17:31 32.62298 34.95509 1473 ft 125 kts 13°
2026-04-25 17:32 32.63109 34.95672 1601 ft 117 kts
2026-04-25 17:32 32.63912 34.95723 1721 ft 111 kts
2026-04-25 17:32 32.64655 34.95707 1864 ft 107 kts 358°
2026-04-25 17:32 32.65445 34.95722 1816 ft 119 kts 359°
2026-04-25 17:33 32.66299 34.95742 1325 ft 138 kts 13°
2026-04-25 17:33 32.67147 34.95952 1496 ft 116 kts 10°
2026-04-25 17:33 32.67921 34.96107 1620 ft 111 kts
2026-04-25 17:33 32.68713 34.96219 1683 ft 112 kts
2026-04-25 17:34 32.69493 34.96322 1604 ft 115 kts
2026-04-25 17:34 32.70292 34.96454 1588 ft 114 kts
2026-04-25 17:34 32.71081 34.96565 1590 ft 113 kts 360°
2026-04-25 17:34 32.71854 34.96380 1625 ft 115 kts 339°
2026-04-25 17:35 32.72603 34.95962 1532 ft 124 kts 335°
2026-04-25 17:35 32.73351 34.95465 1519 ft 122 kts 328°
2026-04-25 17:35 32.74037 34.94838 1524 ft 125 kts 321°
2026-04-25 17:35 32.74500 34.94479 1444 ft 121 kts 335°
2026-04-25 17:36 32.75581 34.94037 1184 ft 117 kts 345°
2026-04-25 17:36 32.76092 34.93858 1121 ft 115 kts 346°
2026-04-25 17:36 32.76877 34.93692 1017 ft 115 kts 353°
2026-04-25 17:36 32.77681 34.93674 944 ft 118 kts
2026-04-25 17:37 32.78476 34.93789 984 ft 105 kts
2026-04-25 17:37 32.79161 34.93964 1132 ft 96 kts 13°
2026-04-25 17:37 32.79801 34.94148 1276 ft 94 kts
2026-04-25 17:37 32.80420 34.94202 1470 ft 89 kts 360°
2026-04-25 17:38 32.81105 34.94251 1384 ft 107 kts
2026-04-25 17:38 32.81601 34.94356 1365 ft 111 kts 13°
2026-04-25 17:38 32.82582 34.94769 1297 ft 111 kts 24°
2026-04-25 17:38 32.83190 34.95300 1333 ft 111 kts 44°
2026-04-25 17:39 32.83633 34.96085 1274 ft 118 kts 62°
2026-04-25 17:39 32.83839 34.96997 1434 ft 104 kts 73°
2026-04-25 17:39 32.83962 34.97907 1398 ft 116 kts 78°
2026-04-25 17:39 32.83964 34.98918 1244 ft 129 kts 96°
2026-04-25 17:40 32.83746 34.99984 1012 ft 135 kts 106°
2026-04-25 17:40 32.83387 35.01017 922 ft 130 kts 108°
2026-04-25 17:40 32.83150 35.01944 1033 ft 115 kts 97°
2026-04-25 17:40 32.83001 35.02878 1144 ft 113 kts 95°
2026-04-25 17:41 32.82955 35.03830 1155 ft 122 kts 90°
2026-04-25 17:41 32.82743 35.04813 1167 ft 123 kts 108°
2026-04-25 17:41 32.82324 35.05713 1153 ft 131 kts 127°
2026-04-25 17:41 32.81637 35.06467 964 ft 132 kts 143°
2026-04-25 17:42 32.80843 35.06922 958 ft 122 kts 162°
2026-04-25 17:42 32.80030 35.07194 891 ft 124 kts 167°
2026-04-25 17:42 32.79231 35.07322 848 ft 99 kts 193°
2026-04-25 17:42 32.78712 35.06924 679 ft 89 kts 233°
2026-04-25 17:43 32.78358 35.06278 618 ft 90 kts 246°
2026-04-25 17:43 32.78500 35.05642 723 ft 83 kts 327°
2026-04-25 17:43 32.79020 35.05256 655 ft 91 kts 328°
2026-04-25 17:43 32.79526 35.05006 466 ft 72 kts 338°
2026-04-25 17:44 32.79957 35.04840 234 ft 62 kts 335°
2026-04-25 17:44 32.80363 35.04670 72 ft 54 kts 339°
2026-04-25 17:44 32.80674 35.04526 21 ft 40 kts 338°
2026-04-25 17:44 32.80866 35.04444 22 ft 21 kts 334°
2026-04-25 17:45 32.80930 35.04383 23 ft 7 kts 323°
2026-04-25 17:45 32.80972 35.04390 23 ft 11 kts
2026-04-25 17:45 32.81104 35.04337 21 ft 16 kts 341°
2026-04-25 17:45 32.81165 35.04268 22 ft 11 kts 261°
2026-04-25 17:46 32.81162 35.04197 20 ft 8 kts 330°
2026-04-25 17:46 32.81162 35.04168 20 ft 0 kts 159°